Regional Weather Roundup
Issued by NWS Jackson, KY

Home | Current Version | Previous Version | Graphics & Text | Print | Product List | Glossary On
Versions: 1 2 3 4 5 6 7 8 9 10 11 12 13 14 15 16 17 18 19 20 21 22 23 24 25 26 27 28 29 30 31 32 33 34 35 36 37 38 39 40 41 42 43 44 45 46 47 48 49 50
000
ASUS43 KJKL 241710
RWRJKL

EAST KENTUCKY HOURLY WEATHER ROUNDUP
NATIONAL WEATHER SERVICE JACKSON KY
100 PM EDT TUE MAY 24 2016

NOTE: "FAIR" INDICATES FEW OR NO CLOUDS BELOW 12,000 FEET WITH
NO SIGNIFICANT WEATHER AND/OR OBSTRUCTIONS TO VISIBILITY.

* THESE REPORTS ARE NOT UNDER NWS QUALITY CONTROL AND MAY NOT
  REPORT WEATHER SUCH AS PRECIPITATION AND FOG.

KYZ079-080-083-085-087-088-110-112-115-119-120-241800
...EASTERN KENTUCKY...

CITY           SKY/WX    TMP DP  RH WIND       PRES   REMARKS
JACKSON        SUNNY     75  51  43 VRB3      30.16F
LONDON         SUNNY     75  46  35 VRB3      30.16S
SOMERSET*      SUNNY     73  43  33 W7        30.16F
MONTICELLO*    SUNNY     78  49  35 N13G20    30.17S
WILLIAMSBURG*  SUNNY     75  45  33 NW6       30.16S
MIDDLESBORO*   SUNNY     77  54  44 SE6       30.16F
HARLAN APT*      N/A     75  45  33 CALM      30.17F
HAZARD APT*    SUNNY     75  50  41 CALM      30.15F
BLACK MTN*       N/A     68  50  52 NW2         N/A
PIKE CO APT*     N/A     73  52  48 S5        30.17F
BIG SANDY APT* SUNNY     75  52  44 W8        30.16F
MOREHEAD APT*  SUNNY     75  50  41 VRB5      30.16F
ASHLAND*       SUNNY     77  54  44 S7        30.11F
$$

KYZ035-036-041-042-044-050-067-078-099-241800
...CENTRAL KENTUCKY...

CITY           SKY/WX    TMP DP  RH WIND       PRES   REMARKS
MT STERLING*   SUNNY     75  52  43 S3        30.16S
FLEMING/MASON* SUNNY    N/A N/A N/A SW3       30.15F
DANVILLE*      SUNNY     77  50  38 S3        30.16S
RICHMOND*      SUNNY     75  50  41 W7        30.14F
LEXINGTON      SUNNY     77  49  37 SW9       30.14F
FRANKFORT      SUNNY     78  44  29 S7        30.12S
LOUISVILLE     MOSUNNY   80  48  32 S10       30.11F
LEBANON*         N/A     77  46  33 SE3       30.14F
GLASGOW*       SUNNY     80  51  37 SW5       30.14R
BOWLING GREEN  MOSUNNY   82  54  37 SW9       30.12S
$$

KYZ091>093-OHZ055-061-077-WVZ005-015-034-035-042-241800
...SOUTHERN OHIO/WEST VIRGINIA...

CITY           SKY/WX    TMP DP  RH WIND       PRES   REMARKS
COVINGTON      PTSUNNY   76  49  38 SW7       30.12F
COLUMBUS       MOSUNNY   76  49  38 SW6       30.10F
DAYTON         MOSUNNY   76  47  35 VRB6      30.12F
WILMINGTON     SUNNY     75  51  43 VRB3      30.12F
HUNTINGTON       N/A     77  51  40 SW7       30.13F
CHARLESTON       N/A     77  51  40 W6        30.13F
PINEVILLE*       N/A     74  43  32 MISG      30.21F
BECKLEY          N/A     69  49  48 W5        30.19F
BLUEFIELD        N/A     68  45  43 SW3       30.20F
LOGAN CO APT*    N/A     73  50  43 CALM      30.16S
$$

VAZ002-007-008-TNZ017-027-036-066-071-241800
...SOUTHWEST VIRGINIA/EAST TENNESSEE...

CITY           SKY/WX    TMP DP  RH WIND       PRES   REMARKS
WISE*            N/A     73  41  31 SW8       30.23S
JONESVILLE*      N/A     75  45  33 W7        30.20S
ABINGDON*        N/A     73  49  41 W5        30.21R
BRISTOL        MOSUNNY   74  51  44 VRB3      30.19S
SEVIERVILLE*   SUNNY     79  52  38 SW5       30.16F
KNOXVILLE      PTSUNNY   77  52  41 CALM      30.16F
CROSSVILLE     SUNNY     76  46  34 VRB6      30.19S
NASHVILLE      MOSUNNY   85  51  31 S9        30.13S
$$

...KEY TO REMARKS...
VSB - VISIBILITY IN MILES
WCI - WIND CHILL INDEX
HX  - HEAT INDEX

$$



USA.gov is the U.S. government's official web portal to all federal, state and local government web resources and services.